Katherine, Australia

9:47 AM ACST on April 30, 2017 (GMT +0930)
Tindal (Military)

Weather History for YPTN - November, 2013

Change the Weather History Date:

Friday, November 1, 2013

  Actual Average Record
Temperature  
Mean Temperature 90 °F -  
Max Temperature 104 °F - - ()
Min Temperature 75 °F - - ()
Cooling Degree Days 24    
Growing Degree Days 40 (Base 50)    
Moisture  
Dew Point 55 °F    
Average Humidity 35    
Maximum Humidity 65    
Minimum Humidity 9    
Precipitation  
Precipitation 0.00 in - - ()
Sea Level Pressure  
Sea Level Pressure 29.84 in    
Wind  
Wind Speed 6 mph ()    
Max Wind Speed 16 mph    
Max Gust Speed 29 mph    
Visibility 6.4 miles    
Events      
T = Trace of Precipitation, MM = Missing Value Source: Averaged Metar Reports

Daily Weather History Graph

Daily Weather History Graph

Search for Another Location

Airport or City:

Trip Planner

Search our weather history database for the weather conditions in past years. The results will help you decide how hot, cold, wet, or windy it might be!

Date:

Astronomy

Nov. 01, 2013 Rise Set
Actual Time 6:05 AM ACST 6:43 PM ACST
Civil Twilight 5:43 AM ACST 7:05 PM ACST
Nautical Twilight 5:17 AM ACST 7:31 PM ACST
Astronomical Twilight 4:51 AM ACST 7:57 PM ACST
Moon 4:04 AM ACST (11/1) 4:38 PM ACST (11/1)
Length of Visible Light 13h 21m
Length of Day
12h 37m
Waning Crescent, 7% of the Moon is Illuminated
Nov 1
Waning Crescent
Nov 3
New
Nov 10
First Quarter
Nov 18
Full
Nov 26
Last Quarter

Hourly Weather History & Observations

Time (ACST) Temp. Heat Index Dew Point Humidity Pressure Visibility Wind Dir Wind Speed Gust Speed Precip Events Conditions
12:00 AM 84.2 °F 84.4 °F 60.8 °F 45% 29.86 in 6.2 mi SSE 6.9 mph - N/A   Unknown
12:30 AM 82.4 °F 82.9 °F 60.8 °F 48% 29.86 in 6.2 mi SSE 5.8 mph - N/A   Unknown
1:00 AM 80.6 °F 81.5 °F 60.8 °F 51% 29.83 in 6.2 mi SSE 5.8 mph - N/A   Unknown
1:30 AM 84.2 °F 84.4 °F 60.8 °F 45% 29.83 in 6.2 mi ENE 5.8 mph - N/A   Unknown
2:00 AM 82.4 °F 82.9 °F 60.8 °F 48% 29.83 in 6.2 mi NW 4.6 mph - N/A   Unknown
2:30 AM 80.6 °F 81.5 °F 60.8 °F 51% 29.83 in 6.2 mi NW 4.6 mph - N/A   Unknown
3:00 AM 78.8 °F - 60.8 °F 54% 29.83 in 6.2 mi North 3.5 mph - N/A   Unknown
3:30 AM 78.8 °F - 62.6 °F 57% 29.83 in 6.2 mi NNW 1.2 mph - N/A   Unknown
4:00 AM 78.8 °F - 62.6 °F 57% 29.83 in 6.2 mi NW 5.8 mph - N/A   Unknown
4:30 AM 77.0 °F - 62.6 °F 61% 29.86 in 6.2 mi Calm Calm - N/A   Unknown
5:00 AM 75.2 °F - 62.6 °F 65% 29.86 in 6.2 mi Calm Calm - N/A   Unknown
5:30 AM 75.2 °F - 62.6 °F 65% 29.86 in 6.2 mi Calm Calm - N/A   Unknown
6:00 AM 75.2 °F - 62.6 °F 65% 29.89 in 6.2 mi Calm Calm - N/A   Unknown
6:30 AM 75.2 °F - 62.6 °F 65% 29.89 in 6.2 mi Calm Calm - N/A   Unknown
7:00 AM 78.8 °F - 64.4 °F 61% 29.89 in 6.2 mi WSW 1.2 mph - N/A   Unknown
7:30 AM 82.4 °F 84.6 °F 66.2 °F 58% 29.89 in 6.2 mi Calm Calm - N/A   Unknown
8:00 AM 86.0 °F 89.4 °F 68.0 °F 55% 29.92 in 6.2 mi SSE 9.2 mph - N/A   Unknown
8:30 AM 86.0 °F 89.4 °F 68.0 °F 55% 29.92 in - SSW 5.8 mph - N/A   Clear
9:00 AM 89 °F - 71 °F 45%  in 12 mi East 2.3 mph - -   Partly Cloudy
9:00 AM 89.6 °F 93.4 °F 68.0 °F 49% 29.92 in - SE 3.5 mph - N/A   Clear
9:30 AM 89.6 °F 92.2 °F 66.2 °F 46% 29.92 in - North 3.5 mph - N/A   Clear
10:00 AM 91.4 °F 94.0 °F 66.2 °F 43% 29.92 in - ENE 4.6 mph - N/A   Clear
10:30 AM 93.2 °F 96.2 °F 66.2 °F 41% 29.89 in - NNW 5.8 mph - N/A   Clear
11:00 AM 96.8 °F 98.0 °F 62.6 °F 32% 29.89 in - ESE 10.4 mph - N/A   Clear
11:30 AM 98.6 °F 97.6 °F 57.2 °F 25% 29.89 in - East 13.8 mph - N/A   Clear
12:00 PM 100.4 °F 98.4 °F 53.6 °F 21% 29.86 in - SE 12.7 mph - N/A   Clear
12:30 PM 100.4 °F - 50.0 °F 18% 29.83 in - ESE 10.4 mph - N/A   Clear
1:00 PM 100.4 °F - 51.8 °F 20% 29.83 in - East 10.4 mph - N/A   Clear
1:30 PM 102.2 °F - 51.8 °F 18% 29.80 in - ENE 16.1 mph 28.8 mph N/A   Clear
2:00 PM 104.0 °F - 48.2 °F 15% 29.80 in - East 12.7 mph - N/A   Clear
2:30 PM 102.2 °F - 48.2 °F 16% 29.80 in 6.2 mi ESE 15.0 mph - N/A   Scattered Clouds
3:00 PM 104 °F - 49 °F 9%  in 9 mi East 10.4 mph - -   Partly Cloudy
3:00 PM 104.0 °F - 48.2 °F 15% 29.77 in 6.2 mi ESE 12.7 mph - N/A   Scattered Clouds
3:30 PM 104.0 °F - 44.6 °F 13% 29.77 in 6.2 mi ESE 13.8 mph - N/A   Unknown
4:00 PM 102.2 °F - 44.6 °F 14% 29.77 in 6.2 mi ESE 13.8 mph - N/A   Unknown
4:30 PM 102.2 °F - 42.8 °F 13% 29.74 in 6.2 mi East 10.4 mph - N/A   Unknown
5:00 PM 104.0 °F - 41.0 °F 12% 29.74 in 6.2 mi ESE 13.8 mph - N/A   Unknown
5:30 PM 102.2 °F - 37.4 °F 11% 29.74 in 6.2 mi East 10.4 mph - N/A   Unknown
6:00 PM 100.4 °F - 41.0 °F 13% 29.77 in 6.2 mi SE 10.4 mph - N/A   Unknown
6:30 PM 98.6 °F - 39.2 °F 13% 29.77 in 6.2 mi ESE 10.4 mph - N/A   Unknown
7:00 PM 95.0 °F - 41.0 °F 15% 29.77 in 6.2 mi SE 5.8 mph - N/A   Unknown
7:30 PM 89.6 °F - 44.6 °F 21% 29.80 in 6.2 mi SE 5.8 mph - N/A   Unknown
8:00 PM 87.8 °F - 46.4 °F 24% 29.80 in 6.2 mi ESE 5.8 mph - N/A   Unknown
8:30 PM 89.6 °F - 44.6 °F 21% 29.83 in 6.2 mi East 5.8 mph - N/A   Unknown
9:00 PM 86.0 °F - 44.6 °F 23% 29.83 in 6.2 mi East 5.8 mph - N/A   Unknown
9:30 PM 91.4 °F - 41.0 °F 17% 29.83 in 6.2 mi ENE 8.1 mph - N/A   Unknown
10:00 PM 91.4 °F - 42.8 °F 18% 29.86 in 6.2 mi ENE 8.1 mph - N/A   Unknown
10:30 PM 89.6 °F - 44.6 °F 21% 29.86 in 6.2 mi ENE 6.9 mph - N/A   Unknown
11:30 PM 80.6 °F - 50.0 °F 34% 29.86 in 6.2 mi Calm Calm - N/A   Unknown